This is the latest recevied weather packets stored in our database for station/object KQ7A. If no packets are shown the sender has not sent any weather packets the latest 10 day(s).
| Time | Temp. | Humidity | Pressure | Rain* | Wind** | Luminosity | Snow |
|---|---|---|---|---|---|---|---|
| 1777344888 | 6.67° C | 50% | 1016 hPa | 0 mm | - | 0 W/m² | - |
| 1777344281 | 7.22° C | 52% | 1015.6 hPa | 0 mm | - | 3 W/m² | - |
| 1777343978 | 7.22° C | 52% | 1015.8 hPa | 0 mm | - | 5 W/m² | - |
| 1777343676 | 7.22° C | 54% | 1015.5 hPa | 0 mm | - | 8 W/m² | - |
| 1777343373 | 7.78° C | 53% | 1015.4 hPa | 0 mm | - | 13 W/m² | - |
| 1777343072 | 8.33° C | 55% | 1015.4 hPa | 0 mm | - | 16 W/m² | - |
| 1777342465 | 10° C | 43% | 1015 hPa | 0 mm | - | 22 W/m² | - |
| 1777342162 | 10° C | 41% | 1015.3 hPa | 0 mm | - | 26 W/m² | - |
| 1777341858 | 10.56° C | 41% | 1015.1 hPa | 0 mm | - | 27 W/m² | - |
| 1777341554 | 10.56° C | 37% | 1015.1 hPa | 0 mm | - | 33 W/m² | - |
| 1777341251 | 10.56° C | 39% | 1015.1 hPa | 0 mm | - | 39 W/m² | - |
| 1777340947 | 10.56° C | 39% | 1014.8 hPa | 0 mm | - | 40 W/m² | - |
| 1777340646 | 10.56° C | 38% | 1015 hPa | 0 mm | - | 39 W/m² | - |
| 1777340343 | 10.56° C | 38% | 1015.1 hPa | 0 mm | - | 38 W/m² | - |
| 1777340040 | 10° C | 39% | 1015 hPa | 0 mm | - | 40 W/m² | - |
| 1777339737 | 10.56° C | 38% | 1015.1 hPa | 0 mm | - | 43 W/m² | - |
| 1777339435 | 11.11° C | 38% | 1015.1 hPa | 0 mm | - | 46 W/m² | - |
| 1777339132 | 11.67° C | 39% | 1014.7 hPa | 0 mm | - | 50 W/m² | - |
| 1777338829 | 12.22° C | 32% | 1014.7 hPa | 0 mm | - | 51 W/m² | - |
| 1777338527 | 12.78° C | 29% | 1014.8 hPa | 0 mm | - | 55 W/m² | - |
| 1777338224 | 13.89° C | 29% | 1015.1 hPa | 0 mm | - | 59 W/m² | - |
| 1777337919 | 13.89° C | 28% | 1014.7 hPa | 0 mm | - | 211 W/m² | - |
| 1777336710 | 13.89° C | 29% | 1014.7 hPa | 0 mm | - | 312 W/m² | - |
| 1777336408 | 13.89° C | 29% | 1014.7 hPa | 0 mm | - | 342 W/m² | - |
| 1777335500 | 12.22° C | 30% | 1014.7 hPa | 0 mm | - | 246 W/m² | - |
* Rain latest hour (hover to see other rain measurements)
** Current wind speed in m/s (hover to see current wind gust speed)